Location: Malvern Link
(52.1333°N, 2.3000°W)
Time: 09:04:06
(UTC+00:00)

AO-92 - Pass Details

Date: 03 July 2022
Orbit: 469 x 481 km, 97.4° (Epoch: 13 August)

Event Time Altitude Azimuth Distance (km) Brightness Sun altitude
Exits shadow 21:58:59 12° 164° (SSE) 1,505 ? -9.4°
Maximum altitude 22:02:12 88° 78° (ENE) 489 ? -9.7°
Drops below altitude 10° 22:05:48 10° 347° (NNW) 1,675 ? -9.9°
Sets 22:07:53 0° 347° (NNW) 2,563 ? -10.1°
